JAL2904 RJSS-RJTT

Flight info

Callsign JAL2904
Flight time 0h 49m
Altitude 28000
Route IXE Y88 DAIGO Y10 GODIN
Aircraft A359/H-SDE2E3GHIJ3J4J5LM1ORWXY/LB1D1

Departure

Time 2026-05-06 15:46
Airport Sendai Airport (RJSS)

Arrival

Time 2026-05-06 16:35
Airport Tokyo Haneda International Airport (RJTT)
Time Latitude Longitude Altitude Speed Heading
2026-05-06 15:13 38.13900 140.93010 25 ft 0 kts 172°
2026-05-06 15:40 38.13919 140.93006 25 ft 4 kts 172°
2026-05-06 15:40 38.13940 140.93003 24 ft 4 kts 171°
2026-05-06 15:40 38.13967 140.92996 26 ft 4 kts 166°
2026-05-06 15:40 38.13993 140.92987 25 ft 4 kts 160°
2026-05-06 15:41 38.14018 140.92973 26 ft 4 kts 150°
2026-05-06 15:41 38.14026 140.92967 27 ft 4 kts 147°
2026-05-06 15:43 38.14024 140.92971 27 ft 2 kts 137°
2026-05-06 15:43 38.14025 140.93008 28 ft 8 kts 70°
2026-05-06 15:43 38.14042 140.93098 24 ft 8 kts 82°
2026-05-06 15:43 38.14050 140.93175 24 ft 3 kts 82°
2026-05-06 15:44 38.14056 140.93218 23 ft 7 kts 77°
2026-05-06 15:44 38.14100 140.93273 26 ft 7 kts 14°
2026-05-06 15:44 38.14146 140.93273 29 ft 6 kts 356°
2026-05-06 15:44 38.14181 140.93264 29 ft 8 kts 341°
2026-05-06 15:45 38.14218 140.93176 30 ft 4 kts 262°
2026-05-06 15:45 38.14213 140.93125 30 ft 18 kts 262°
2026-05-06 15:45 38.14159 140.92614 33 ft 97 kts 262°
2026-05-06 15:45 38.14043 140.91490 161 ft 141 kts 260°
2026-05-06 15:46 38.13928 140.90309 826 ft 149 kts 262°
2026-05-06 15:46 38.13399 140.89153 1377 ft 163 kts 212°
2026-05-06 15:46 38.12282 140.89115 2057 ft 177 kts 157°
2026-05-06 15:46 38.11333 140.90322 2316 ft 215 kts 119°
2026-05-06 15:47 38.11062 140.92328 2633 ft 251 kts 83°
2026-05-06 15:47 38.11641 140.94461 3401 ft 260 kts 68°
2026-05-06 15:47 38.12086 140.96678 4180 ft 262 kts 95°
2026-05-06 15:47 38.11576 140.98877 5040 ft 261 kts 117°
2026-05-06 15:48 38.10803 141.00992 5905 ft 268 kts 117°
2026-05-06 15:48 38.10000 141.03194 6618 ft 282 kts 114°
2026-05-06 15:48 38.09288 141.05546 7445 ft 288 kts 112°
2026-05-06 15:48 38.08583 141.07942 8461 ft 290 kts 112°
2026-05-06 15:49 38.07859 141.10340 9463 ft 294 kts 113°
2026-05-06 15:49 38.07109 141.12776 10362 ft 301 kts 113°
2026-05-06 15:49 38.06312 141.15331 10815 ft 323 kts 114°
2026-05-06 15:49 38.05450 141.18072 11196 ft 346 kts 114°
2026-05-06 15:50 38.04530 141.20989 11653 ft 364 kts 114°
2026-05-06 15:50 38.03565 141.23997 12347 ft 372 kts 116°
2026-05-06 15:50 38.02236 141.26816 13095 ft 375 kts 132°
2026-05-06 15:50 38.00280 141.28975 13882 ft 374 kts 152°
2026-05-06 15:51 37.97883 141.30190 14569 ft 372 kts 171°
2026-05-06 15:51 37.95319 141.30350 15268 ft 369 kts 190°
2026-05-06 15:51 37.92868 141.29459 16010 ft 367 kts 208°
2026-05-06 15:51 37.90732 141.27777 16775 ft 368 kts 217°
2026-05-06 15:52 37.88502 141.26149 17548 ft 375 kts 206°
2026-05-06 15:52 37.86028 141.25010 18323 ft 381 kts 201°
2026-05-06 15:52 37.83483 141.24002 18956 ft 386 kts 201°
2026-05-06 15:52 37.80893 141.22998 19571 ft 392 kts 201°
2026-05-06 15:53 37.78274 141.21984 20198 ft 397 kts 201°
2026-05-06 15:53 37.75614 141.20953 20847 ft 402 kts 201°
2026-05-06 15:53 37.72926 141.19910 21492 ft 407 kts 201°
2026-05-06 15:53 37.70205 141.18855 22165 ft 412 kts 201°
2026-05-06 15:54 37.67448 141.17786 22791 ft 417 kts 201°
2026-05-06 15:54 37.64658 141.16705 23430 ft 422 kts 201°
2026-05-06 15:54 37.61832 141.15611 24010 ft 427 kts 201°
2026-05-06 15:54 37.58985 141.14512 24638 ft 429 kts 201°
2026-05-06 15:55 37.56126 141.13414 25288 ft 430 kts 202°
2026-05-06 15:55 37.53258 141.12305 25926 ft 432 kts 202°
2026-05-06 15:55 37.50383 141.11196 26610 ft 431 kts 202°
2026-05-06 15:55 37.47513 141.10090 27233 ft 434 kts 202°
2026-05-06 15:56 37.45594 141.09349 27580 ft 436 kts 202°
2026-05-06 15:56 37.42679 141.08224 27981 ft 440 kts 203°
2026-05-06 15:56 37.39736 141.07089 28087 ft 449 kts 203°
2026-05-06 15:56 37.36706 141.05917 28096 ft 464 kts 202°
2026-05-06 15:57 37.30440 141.03513 28070 ft 471 kts 202°
2026-05-06 15:57 37.24203 141.01131 28097 ft 467 kts 202°
2026-05-06 15:58 37.18015 140.98702 28097 ft 463 kts 206°
2026-05-06 15:58 37.15178 140.96892 28105 ft 453 kts 219°
2026-05-06 15:58 37.12824 140.94336 28108 ft 445 kts 231°
2026-05-06 15:59 37.08825 140.88432 28101 ft 444 kts 234°
2026-05-06 15:59 37.05032 140.82367 27569 ft 437 kts 235°
2026-05-06 16:00 37.03164 140.79392 26879 ft 433 kts 235°
2026-05-06 16:00 37.01297 140.76445 26246 ft 430 kts 234°
2026-05-06 16:00 36.99439 140.73538 25633 ft 426 kts 234°
2026-05-06 16:00 36.97617 140.70702 25016 ft 422 kts 234°
2026-05-06 16:01 36.95783 140.67858 24449 ft 418 kts 234°
2026-05-06 16:01 36.93957 140.65038 23840 ft 416 kts 234°
2026-05-06 16:01 36.92136 140.62228 23172 ft 414 kts 233°
2026-05-06 16:01 36.90332 140.59452 22536 ft 411 kts 233°
2026-05-06 16:02 36.88536 140.56684 21914 ft 407 kts 233°
2026-05-06 16:02 36.86766 140.53955 21327 ft 403 kts 233°
2026-05-06 16:02 36.85004 140.51237 20708 ft 401 kts 233°
2026-05-06 16:02 36.83257 140.48542 20090 ft 398 kts 233°
2026-05-06 16:03 36.81515 140.45859 19481 ft 396 kts 233°
2026-05-06 16:03 36.79786 140.43199 18853 ft 395 kts 232°
2026-05-06 16:03 36.78058 140.40541 18186 ft 393 kts 232°
2026-05-06 16:03 36.76263 140.37990 17529 ft 392 kts 226°
2026-05-06 16:04 36.74113 140.35904 16857 ft 392 kts 213°
2026-05-06 16:04 36.71614 140.34550 16178 ft 394 kts 200°
2026-05-06 16:04 36.68959 140.33697 15473 ft 393 kts 195°
2026-05-06 16:04 36.66275 140.33080 14794 ft 391 kts 192°
2026-05-06 16:05 36.63592 140.32582 14135 ft 388 kts 191°
2026-05-06 16:05 36.60932 140.32126 13457 ft 385 kts 191°
2026-05-06 16:05 36.58293 140.31659 12805 ft 380 kts 191°
2026-05-06 16:05 36.55695 140.31174 12174 ft 376 kts 191°
2026-05-06 16:06 36.53118 140.30678 11549 ft 373 kts 191°
2026-05-06 16:06 36.50589 140.30183 11234 ft 360 kts 191°
2026-05-06 16:06 36.48177 140.29710 11104 ft 342 kts 191°
2026-05-06 16:06 36.45883 140.29257 10980 ft 326 kts 191°
2026-05-06 16:07 36.43710 140.28749 10818 ft 309 kts 198°
2026-05-06 16:07 36.41840 140.27649 10695 ft 290 kts 218°
2026-05-06 16:07 36.40517 140.25871 10551 ft 275 kts 239°
2026-05-06 16:07 36.39801 140.23733 10437 ft 264 kts 253°
2026-05-06 16:08 36.39356 140.21540 10188 ft 261 kts 256°
2026-05-06 16:08 36.38944 140.19354 9838 ft 260 kts 255°
2026-05-06 16:08 36.38523 140.17135 9545 ft 268 kts 255°
2026-05-06 16:08 36.38088 140.14883 9359 ft 264 kts 255°
2026-05-06 16:09 36.37670 140.12721 9213 ft 252 kts 255°
2026-05-06 16:09 36.37267 140.10657 9077 ft 240 kts 255°
2026-05-06 16:09 36.36880 140.08686 8944 ft 231 kts 255°
2026-05-06 16:09 36.36503 140.06768 8766 ft 228 kts 255°
2026-05-06 16:10 36.36132 140.04886 8532 ft 227 kts 255°
2026-05-06 16:10 36.35662 140.03021 8290 ft 226 kts 244°
2026-05-06 16:10 36.34706 140.01512 8033 ft 224 kts 218°
2026-05-06 16:10 36.33280 140.00770 7937 ft 227 kts 191°
2026-05-06 16:11 36.31705 140.00843 7936 ft 227 kts 175°
2026-05-06 16:11 36.30151 140.01193 7931 ft 228 kts 174°
2026-05-06 16:11 36.28592 140.01569 7933 ft 228 kts 174°
2026-05-06 16:11 36.27036 140.01936 7933 ft 228 kts 174°
2026-05-06 16:12 36.25480 140.02295 7934 ft 227 kts 174°
2026-05-06 16:12 36.23925 140.02649 7937 ft 227 kts 174°
2026-05-06 16:12 36.22372 140.03000 7940 ft 227 kts 174°
2026-05-06 16:12 36.20817 140.03349 7934 ft 227 kts 174°
2026-05-06 16:13 36.19261 140.03701 7938 ft 228 kts 174°
2026-05-06 16:13 36.17748 140.04325 7931 ft 235 kts 155°
2026-05-06 16:13 36.16497 140.05662 7931 ft 241 kts 137°
2026-05-06 16:13 36.15413 140.07264 7926 ft 244 kts 135°
2026-05-06 16:14 36.14346 140.08895 7931 ft 244 kts 135°
2026-05-06 16:14 36.13276 140.10521 7925 ft 244 kts 135°
2026-05-06 16:14 36.12200 140.12142 7926 ft 244 kts 136°
2026-05-06 16:14 36.11120 140.13761 7930 ft 244 kts 136°
2026-05-06 16:15 36.09916 140.15196 7921 ft 236 kts 153°
2026-05-06 16:15 36.08501 140.16173 7924 ft 232 kts 160°
2026-05-06 16:15 36.07045 140.17033 7914 ft 232 kts 161°
2026-05-06 16:15 36.05584 140.17885 7914 ft 232 kts 161°
2026-05-06 16:16 36.04120 140.18743 7914 ft 233 kts 161°
2026-05-06 16:16 36.02655 140.19576 7903 ft 230 kts 165°
2026-05-06 16:16 36.01124 140.19985 7905 ft 222 kts 182°
2026-05-06 16:16 35.99585 140.20059 7910 ft 221 kts 185°
2026-05-06 16:17 35.98049 140.20084 7906 ft 221 kts 185°
2026-05-06 16:17 35.96509 140.20109 7907 ft 222 kts 185°
2026-05-06 16:17 35.94967 140.20139 7904 ft 222 kts 185°
2026-05-06 16:17 35.93423 140.20172 7905 ft 222 kts 185°
2026-05-06 16:18 35.91894 140.20071 7901 ft 218 kts 196°
2026-05-06 16:18 35.90545 140.19334 7901 ft 211 kts 220°
2026-05-06 16:18 35.89617 140.17957 7833 ft 210 kts 241°
2026-05-06 16:18 35.89005 140.16324 7590 ft 210 kts 246°
2026-05-06 16:19 35.88462 140.14683 7351 ft 209 kts 246°
2026-05-06 16:19 35.87903 140.13032 7189 ft 209 kts 244°
2026-05-06 16:19 35.87031 140.11437 7183 ft 240 kts 224°
2026-05-06 16:19 35.85536 140.10421 7217 ft 255 kts 198°
2026-05-06 16:20 35.83736 140.10403 7170 ft 265 kts 172°
2026-05-06 16:20 35.82050 140.11394 6693 ft 278 kts 146°
2026-05-06 16:20 35.80836 140.13295 6218 ft 291 kts 119°
2026-05-06 16:20 35.80393 140.15729 5824 ft 295 kts 93°
2026-05-06 16:21 35.80570 140.18235 5487 ft 293 kts 84°
2026-05-06 16:21 35.80892 140.20715 5360 ft 294 kts 82°
2026-05-06 16:21 35.81635 140.23055 5363 ft 297 kts 57°
2026-05-06 16:21 35.83099 140.24810 5368 ft 295 kts 30°
2026-05-06 16:22 35.84930 140.25922 5361 ft 293 kts 18°
2026-05-06 16:22 35.86856 140.26377 5365 ft 272 kts 355°
2026-05-06 16:22 35.88623 140.25873 5374 ft 255 kts 328°
2026-05-06 16:22 35.89943 140.24514 5370 ft 244 kts 301°
2026-05-06 16:23 35.90596 140.22582 5376 ft 249 kts 274°
2026-05-06 16:23 35.90349 140.20495 5272 ft 249 kts 246°
2026-05-06 16:23 35.89618 140.18565 5061 ft 248 kts 242°
2026-05-06 16:23 35.88957 140.16591 5016 ft 250 kts 247°
2026-05-06 16:24 35.88279 140.14613 5022 ft 249 kts 244°
2026-05-06 16:24 35.87531 140.12741 5023 ft 235 kts 241°
2026-05-06 16:24 35.86750 140.11054 5016 ft 218 kts 238°
2026-05-06 16:24 35.85956 140.09552 5015 ft 201 kts 234°
2026-05-06 16:25 35.85157 140.08221 5015 ft 185 kts 231°
2026-05-06 16:25 35.84348 140.07032 5021 ft 179 kts 228°
2026-05-06 16:25 35.83522 140.05872 5027 ft 180 kts 232°
2026-05-06 16:25 35.82841 140.04589 5026 ft 178 kts 241°
2026-05-06 16:26 35.82294 140.03220 5030 ft 178 kts 243°
2026-05-06 16:26 35.81792 140.01884 5032 ft 163 kts 243°
2026-05-06 16:26 35.81292 140.00671 5036 ft 157 kts 240°
2026-05-06 16:26 35.80733 139.99522 5044 ft 154 kts 236°
2026-05-06 16:27 35.80105 139.98449 5029 ft 156 kts 231°
2026-05-06 16:27 35.79369 139.97464 5035 ft 157 kts 223°
2026-05-06 16:27 35.78526 139.96597 5038 ft 158 kts 218°
2026-05-06 16:27 35.77639 139.95783 5033 ft 159 kts 216°
2026-05-06 16:28 35.76745 139.95012 4902 ft 159 kts 216°
2026-05-06 16:28 35.75849 139.94241 4721 ft 153 kts 216°
2026-05-06 16:28 35.74987 139.93489 4402 ft 152 kts 216°
2026-05-06 16:28 35.74142 139.92731 4153 ft 148 kts 217°
2026-05-06 16:29 35.73324 139.92007 3943 ft 142 kts 215°
2026-05-06 16:29 35.72643 139.91425 3788 ft 137 kts 215°
2026-05-06 16:29 35.71868 139.90756 3618 ft 135 kts 215°
2026-05-06 16:29 35.71098 139.90091 3455 ft 135 kts 215°
2026-05-06 16:30 35.70326 139.89425 3270 ft 136 kts 215°
2026-05-06 16:30 35.69805 139.88974 3150 ft 135 kts 215°
2026-05-06 16:30 35.68808 139.88113 2908 ft 128 kts 214°
2026-05-06 16:30 35.68092 139.87494 2753 ft 125 kts 214°
2026-05-06 16:31 35.67374 139.86874 2586 ft 129 kts 214°
2026-05-06 16:31 35.66578 139.86188 2417 ft 148 kts 214°
2026-05-06 16:31 35.65717 139.85445 2198 ft 152 kts 214°
2026-05-06 16:31 35.64858 139.84702 1987 ft 148 kts 214°
2026-05-06 16:32 35.64052 139.84005 1789 ft 136 kts 214°
2026-05-06 16:32 35.63310 139.83365 1620 ft 126 kts 214°
2026-05-06 16:32 35.62603 139.82756 1455 ft 124 kts 214°
2026-05-06 16:32 35.61891 139.82143 1291 ft 126 kts 214°
2026-05-06 16:33 35.61172 139.81523 1111 ft 127 kts 214°
2026-05-06 16:33 35.60449 139.80899 951 ft 127 kts 214°
2026-05-06 16:33 35.59724 139.80275 758 ft 127 kts 214°
2026-05-06 16:34 35.58278 139.79010 400 ft 128 kts 216°
2026-05-06 16:34 35.57549 139.78380 236 ft 129 kts 214°
2026-05-06 16:34 35.56812 139.77758 62 ft 128 kts 213°
2026-05-06 16:34 35.56120 139.77168 32 ft 110 kts 214°
2026-05-06 16:35 35.55678 139.76791 31 ft 37 kts 215°
2026-05-06 16:35 35.55571 139.76704 31 ft 16 kts 210°
2026-05-06 16:35 35.55468 139.76653 31 ft 17 kts 199°
2026-05-06 16:35 35.55360 139.76624 30 ft 13 kts 190°
2026-05-06 16:36 35.55257 139.76603 29 ft 16 kts 188°
2026-05-06 16:36 35.55160 139.76616 29 ft 11 kts 140°
2026-05-06 16:36 35.55154 139.76709 29 ft 13 kts 66°
2026-05-06 16:36 35.55200 139.76811 29 ft 15 kts 60°
2026-05-06 16:37 35.55247 139.76911 28 ft 8 kts 59°
2026-05-06 16:37 35.55255 139.76927 29 ft 0 kts 60°
2026-05-06 16:37 35.55259 139.76936 29 ft 6 kts 60°
2026-05-06 16:37 35.55297 139.77017 29 ft 6 kts 60°
2026-05-06 16:38 35.55323 139.77080 29 ft 10 kts 75°
2026-05-06 16:38 35.55290 139.77152 29 ft 11 kts 147°
2026-05-06 16:38 35.55212 139.77210 29 ft 15 kts 149°
2026-05-06 16:38 35.55115 139.77279 29 ft 17 kts 150°
2026-05-06 16:39 35.55002 139.77358 29 ft 20 kts 150°
2026-05-06 16:39 35.54873 139.77449 29 ft 22 kts 149°
2026-05-06 16:39 35.54741 139.77543 29 ft 22 kts 150°
2026-05-06 16:39 35.54605 139.77639 29 ft 21 kts 150°
2026-05-06 16:40 35.54497 139.77716 29 ft 16 kts 149°
2026-05-06 16:40 35.54413 139.77793 29 ft 13 kts 115°
2026-05-06 16:40 35.54437 139.77901 30 ft 14 kts 63°
2026-05-06 16:40 35.54488 139.78011 31 ft 16 kts 59°
2026-05-06 16:41 35.54535 139.78108 29 ft 13 kts 60°
2026-05-06 16:41 35.54578 139.78200 30 ft 8 kts 59°
2026-05-06 16:41 35.54595 139.78277 31 ft 10 kts 84°
2026-05-06 16:41 35.54615 139.78357 31 ft 4 kts 56°
2026-05-06 16:42 35.54638 139.78399 31 ft 8 kts 56°
2026-05-06 16:42 35.54640 139.78403 31 ft 1 kts 57°
2026-05-06 16:42 35.54642 139.78406 31 ft 1 kts 57°
2026-05-06 16:42 35.54645 139.78413 31 ft 0 kts 57°
2026-05-06 16:43 35.54648 139.78418 31 ft 2 kts 58°
2026-05-06 16:43 35.54649 139.78420 31 ft 0 kts 58°